ATLAS CENTAUR 2 (694 NORAD) Tracking and Keplerian Element Data

This shows tracking and keplerian element data for the satellite.

Feedback or suggestion? Click here.




ElementValue
Catalog694
NameATLAS CENTAUR 2
Epoch Orbit2053
Epoch Day12.94867667
Epoch Year2024
RAAN255.2942
Inclination30.3543
Eccentricity0.0569895
Argument of Perigee13.6589
Mean Anonmoly347.8756
Mean Motion14.06461517
Decay Rate4.629E-05
L11 00694U 63047A 24012.94867667 .00004629 00000+0 58252-3 0 9996
L22 00694 30.3543 255.2942 0569895 13.6589 347.8756 14.06461517 20537



Live tracking and technical data element details for ATLAS CENTAUR 2 (NORAD 694). ATLAS CENTAUR 2 can be tracked NOW for your location showing map with azimuth and elevation plus other details from your city location.







IsCatalogInMostPopularTable: catalog: 694, numindb: 578
Update: records affected: 1



GetName: 694 ATLAS CENTAUR 2

Hit Count: updated at: Fri, 19 Apr 2024 11:14:07 GMT